This is the latest recevied weather packets stored in our database for station/object K1WJY. If no packets are shown the sender has not sent any weather packets the latest 10 day(s).
| Time | Temp. | Humidity | Pressure | Rain* | Wind** | Luminosity | Snow |
|---|---|---|---|---|---|---|---|
| 1787429659 | 21.11° C | 83% | 1021 hPa | 0 mm | - | 47 W/m² | - |
| 1787429354 | 21.11° C | 82% | 1021.2 hPa | 0 mm | - | 48 W/m² | - |
| 1787429051 | 21.11° C | 82% | 1021.4 hPa | 0 mm | - | 40 W/m² | - |
| 1787428746 | 21.11° C | 81% | 1021.1 hPa | 0 mm | - | 43 W/m² | - |
| 1787428442 | 21.67° C | 80% | 1021.3 hPa | 0 mm | - | 53 W/m² | - |
| 1787428142 | 21.67° C | 80% | 1021.2 hPa | 0 mm | - | 86 W/m² | - |
| 1787427837 | 21.67° C | 80% | 1021.3 hPa | 0 mm | - | 94 W/m² | - |
| 1787427533 | 22.22° C | 78% | 1021.4 hPa | 0 mm | - | 100 W/m² | - |
| 1787427229 | 22.78° C | 77% | 1021.3 hPa | 0 mm | - | 158 W/m² | - |
| 1787426925 | 23.33° C | 76% | 1021.3 hPa | 0 mm | - | 176 W/m² | - |
| 1787426625 | 23.33° C | 75% | 1021.2 hPa | 0 mm | - | 221 W/m² | - |
| 1787426321 | 22.78° C | 76% | 1020.9 hPa | 0 mm | - | 252 W/m² | - |
| 1787426018 | 22.78° C | 76% | 1021 hPa | 0 mm | - | 237 W/m² | - |
| 1787425713 | 22.78° C | 76% | 1021.4 hPa | 0 mm | - | 224 W/m² | - |
| 1787425410 | 22.78° C | 76% | 1021.4 hPa | 0 mm | - | 196 W/m² | - |
| 1787425110 | 23.33° C | 75% | 1021.5 hPa | 0 mm | - | 170 W/m² | - |
| 1787424810 | 23.89° C | 74% | 1021.6 hPa | 0 mm | - | 204 W/m² | - |
| 1787424504 | 23.33° C | 74% | 1021.3 hPa | 0 mm | - | 242 W/m² | - |
| 1787424200 | 23.33° C | 75% | 1021.2 hPa | 0 mm | - | 232 W/m² | - |
| 1787423895 | 23.33° C | 74% | 1021.5 hPa | 0 mm | - | 214 W/m² | - |
| 1787423593 | 23.33° C | 73% | 1021.6 hPa | 0 mm | - | 194 W/m² | - |
| 1787423292 | 23.89° C | 74% | 1021.4 hPa | 0 mm | - | 198 W/m² | - |
| 1787422989 | 23.89° C | 72% | 1021.6 hPa | 0 mm | - | 187 W/m² | - |
| 1787422684 | 23.33° C | 73% | 1021.6 hPa | 0 mm | - | 195 W/m² | - |
| 1787422381 | 23.33° C | 72% | 1021.9 hPa | 0 mm | - | 205 W/m² | - |
* Rain latest hour (hover to see other rain measurements)
** Current wind speed in m/s (hover to see current wind gust speed)